Regional Weather Roundup
Issued by NWS

Home | Current Version | Previous Version | Graphics & Text | Print | Product List | Glossary Off
Versions: 1 2 3 4 5 6 7 8 9 10 11 12 13 14 15 16 17 18 19 20 21 22 23 24 25 26 27 28 29 30 31 32 33 34 35 36 37 38 39 40 41 42 43 44 45 46 47 48 49 50

192
ASUS43 KMKX 190100
RWRWI

WISCONSIN REGIONAL WEATHER ROUNDUP
NATIONAL WEATHER SERVICE MILWAUKEE/SULLIVAN WI
800 PM CDT WED OCT 18 2017

NOTE: "FAIR" INDICATES FEW OR NO CLOUDS BELOW 12,000 FEET WITH NO
SIGNIFICANT WEATHER AND/OR OBSTRUCTIONS TO VISIBILITY.

WIZ001-002-006>008-014>016-023>028-190200-
NORTHWEST WISCONSIN

CITY           SKY/WX    TMP DP  RH WIND       PRES   REMARKS
SUPERIOR ARPT  CLOUDY    56  20  24 W10       29.82R
ASHLAND        CLEAR     56  23  27 SW8       29.79R
HAYWARD        CLOUDY    59  18  20 W8G22     29.85R
SIREN          PTCLDY    58  17  19 W10G17    29.89R
CUMBERLAND     CLOUDY    54  23  30 W12       29.88R
RICE LAKE      CLOUDY    59  23  25 W7        29.89R
CHETEK         CLOUDY    60  27  28 W8        29.87R
LADYSMITH      CLEAR     59  43  55 SW9       29.86R
EAU CLAIRE     NOT AVBL
MENOMONIE      CLEAR     61  32  33 W8        29.89R
NEW RICHMOND   CLOUDY    56  24  28 W10       29.92R
OSCEOLA        CLOUDY    58  20  22 W14G20    29.94R
$$

WIZ003>005-009-010-017-018-190200-
NORTH CENTRAL WISCONSIN

CITY           SKY/WX    TMP DP  RH WIND       PRES   REMARKS
MANITOWISH WTR CLEAR     59  42  53 SW10G17   29.79S
ARBOR VITAE    CLEAR     62  46  55 W9        29.80R
WOODRUFF       CLEAR     62  46  55 W9        29.80R
RHINELANDER    CLEAR     61  48  62 W15G23    29.82R
EAGLE RIVER    CLEAR     60  44  56 W10       29.79R
LAND O LAKES   CLEAR     61  45  55 W7        29.80R
PHILLIPS       CLOUDY    58  43  56 SW10      29.82S
TOMAHAWK       CLEAR     61  46  57 W5        29.83R
MEDFORD        CLEAR     59  47  63 SW8       29.86R
MERRILL        CLEAR     62  48  60 W12G18    29.85R
$$

WIZ029-030-035-036-043>047-190200-
CENTRAL WISCONSIN

CITY           SKY/WX    TMP DP  RH WIND       PRES   REMARKS
WAUSAU         CLEAR     63  48  58 SW13      29.84R
MOSINEE        PTCLDY    59  48  67 S8        29.87R
MARSHFIELD     CLEAR     61  47  59 W12       29.87R
STEVENS POINT  CLEAR     62  46  57 SW9       29.88R
WAUPACA        CLEAR     64  47  53 S8        29.88S
WAUTOMA        CLEAR     63  47  55 S7        29.91S
WISC RAPIDS    CLEAR     63  48  58 SW8       29.89R
CAMP DOUGLAS   NOT AVBL
$$

WIZ011>013-019>022-031-037>040-048>050-190200-
NORTHEAST WISCONSIN

CITY           SKY/WX    TMP DP  RH WIND       PRES   REMARKS
ANTIGO         CLEAR     61  47  58 SW15      29.83S
SHAWANO        CLEAR     66  46  48 SW5       29.84S
OCONTO         CLEAR     65  46  48 SW9G17    29.83F
STURGEON BAY   PTCLDY    59  48  67 S14       29.85F
GREEN BAY      CLEAR     64  47  53 SW14G25   29.87S
MANITOWOC      PTCLDY    63  44  50 SW9       29.91S
APPLETON       PTCLDY    63  41  45 SW17G23   29.88R
CLINTONVILLE   NOT AVBL
OSHKOSH        CLEAR     62  45  53 SW14      29.91R
$$

WIZ032>034-041-042-053>061-190200-
SOUTHWEST WISCONSIN

CITY           SKY/WX    TMP DP  RH WIND       PRES   REMARKS
LA CROSSE      CLEAR     66  49  54 W9        29.92R
SPARTA         CLOUDY    62  49  63 CALM      29.92R
VIROQUA        CLEAR     61  48  62 SW8       29.95R
BOSCOBEL       CLOUDY    65  47  52 SW8       29.96R
PRAIRIE DU CHI CLOUDY    64  46  51 CALM      29.96R
PLATTEVILLE    CLEAR     59  48  66 S7        30.00R
$$

WIZ056-057-062-063-064-067-068-190200-
SOUTH CENTRAL WISCONSIN

CITY           SKY/WX    TMP DP  RH WIND       PRES   REMARKS
REEDSBURG      CLEAR     62  47  58 S10       29.94S
BARABOO/DELLS  CLEAR     63  45  51 S10G16    29.94R
LONE ROCK      NOT AVBL
MINERAL POINT  CLEAR     61  46  59 SW8       29.99R
MADISON        CLEAR     65  44  46 SW9       29.97R
MIDDLETON      CLEAR     64  44  48 SW6       29.97R
WATERTOWN      CLEAR     60  44  56 S6        29.96R
MONROE         CLEAR     61  43  51 SW9       29.99R
JANESVILLE     CLEAR     64  41  42 S8        29.99R
$$

WIZ051-052-058>065-066-070>072-190200-
SOUTHEAST WISCONSIN

CITY           SKY/WX    TMP DP  RH WIND       PRES   REMARKS
MILWAUKEE      MOCLDY    65  42  43 SW16      29.98R
WAUKESHA       CLEAR     63  39  42 SW12      29.98R
MILWAUKEE/TIMM CLEAR     63  39  42 SW10      29.98R
RACINE         MOCLDY    63  42  46 SW12      30.00R
BURLINGTON     PTCLDY    58  45  60 S7        29.99R
KENOSHA        CLOUDY    63  41  44 SW12      29.99S
FOND DU LAC    CLEAR     63  43  48 S12G20    29.93R
SHEBOYGAN      PTCLDY    61  46  57 S12       29.93R
WEST BEND      PTCLDY    63  41  45 SW13G18   29.95R
JUNEAU         CLEAR     60  44  55 S6        29.96R
$$

LSZ147-162-190200-
LAKE SUPERIOR

STATION/POSITION TIME  TEMP    WIND        PRES    WAVE
                       AIR SEA DIR/SP/G            HT/PER
                 (UTC) (F)     (DEG/KT/KT) (MB)    (FT/S)
W MID LAKE BUOY  2350   58 53              1004.4R   5/ 6
DEVILS ISLAND    0000   59     260/ 20/ 24 1006.7R
PORT WING        0000          240/ 11/ 24 1008.5R
SAXON HARBOR     0030   62     230/  4/  9 1007.8R
$$

LMZ867-665-643>646-190200-
LAKE MICHIGAN

STATION/POSITION TIME  TEMP    WIND        PRES    WAVE
                       AIR SEA DIR/SP/G            HT/PER
                 (UTC) (F)     (DEG/KT/KT) (MB)    (FT/S)
S GREEN BAY BUOY 0030   63 58  200/ 17/ 21 1010.3S
N MID LAKE BUOY  2350   61 59  190/ 29/ 37 1009.9R  12/ 8
NORTHPORT PIER   0040   59     160/  8/ 13 1009.5F
KEWAUNEE LAKESHO 0030   58     190/  9/ 11 1011.3S
SHEBOYGAN LAKESH 0000   64     200/ 14/ 15 1013.0R
PORT WASHINGTON  0030   67     210/  9/ 15 1014.9R
ATWATER BUOY     2309   65 52  190/ 16/ 17 1014.2F
MILWAUKEE LAKESH 0040   66     220/ 13/ 15   N/A
S MID LAKE BUOY  2350   64 61  210/ 19/ 21 1016.2R   4/ 4
KENOSHA   LAKESH 0000   66     190/ 10/ 13 1014.9
$$

TC  - TEMPERATURE IN CELSIUS
VSB - VISIBILITY IN STATUTE MILES
WCI - WIND CHILL INDEX
HX  - HEAT INDEX





USA.gov is the U.S. government's official web portal to all federal, state and local government web resources and services.